| time (UTC) | temp F | wind direction | speed MPH | gust MPH | rain 1hr in | rain 24hr in | rain mn in | humidity % | barometer mb |
| 20260901174515 | 96 | 226 | 2.0 | 7.0 | 0.00 | 0.00 | 0.00 | 46 | 993.9 |
| 20260901173019 | 95 | 130 | 2.0 | 7.0 | 0.00 | 0.00 | 0.00 | 46 | 994.1 |
| 20260901171514 | 94 | 142 | 3.0 | 8.0 | 0.00 | 0.00 | 0.00 | 48 | 994.3 |
| 20260901170005 | 94 | 287 | 2.0 | 6.0 | 0.00 | 0.00 | 0.00 | 50 | 994.6 |
| 20260901164511 | 93 | 264 | 2.0 | 5.0 | 0.00 | 0.00 | 0.00 | 50 | 994.8 |
| 20260901163100 | 92 | 207 | 1.0 | 7.0 | 0.00 | 0.00 | 0.00 | 51 | 994.9 |
| 20260901161609 | 91 | 78 | 1.0 | 5.0 | 0.00 | 0.00 | 0.00 | 52 | 994.8 |
| 20260901160107 | 91 | 340 | 1.0 | 6.0 | 0.00 | 0.00 | 0.00 | 54 | 994.9 |
| 20260901154558 | 91 | 113 | 1.0 | 4.0 | 0.00 | 0.00 | 0.00 | 55 | 994.8 |
| 20260901153053 | 90 | 238 | 2.0 | 5.0 | 0.00 | 0.00 | 0.00 | 56 | 994.8 |
| 20260901151545 | 89 | 196 | 1.0 | 5.0 | 0.00 | 0.00 | 0.00 | 58 | 994.7 |
| 20260901150043 | 88 | 215 | 2.0 | 5.0 | 0.00 | 0.00 | 0.00 | 59 | 994.7 |
| 20260901144546 | 87 | 127 | 2.0 | 5.0 | 0.00 | 0.00 | 0.00 | 61 | 994.9 |
| 20260901143045 | 87 | 203 | 2.0 | 6.0 | 0.00 | 0.00 | 0.00 | 62 | 994.9 |
| 20260901141541 | 86 | 123 | 0.0 | 4.0 | 0.00 | 0.00 | 0.00 | 63 | 994.9 |
| 20260901140030 | 85 | 156 | 0.0 | 5.0 | 0.00 | 0.00 | 0.00 | 65 | 995.0 |
| 20260901134528 | 84 | 84 | 1.0 | 5.0 | 0.00 | 0.00 | 0.00 | 67 | 995.0 |
| 20260901133025 | 83 | 98 | 1.0 | 3.0 | 0.00 | 0.00 | 0.00 | 69 | 994.9 |
| 20260901131526 | 82 | 122 | 0.0 | 2.0 | 0.00 | 0.00 | 0.00 | 71 | 994.8 |
| 20260901130025 | 81 | 226 | 0.0 | 1.0 | 0.00 | 0.00 | 0.00 | 71 | 994.6 |
| 20260901124519 | 81 | 226 | 0.0 | 0.0 | 0.00 | 0.00 | 0.00 | 71 | 994.3 |
| 20260901123014 | 82 | 226 | 0.0 | 0.0 | 0.00 | 0.00 | 0.00 | 70 | 994.1 |
| 20260901121512 | 82 | 226 | 0.0 | 0.0 | 0.00 | 0.00 | 0.00 | 68 | 994.0 |
| 20260901120009 | 82 | 94 | 0.0 | 3.0 | 0.00 | 0.00 | 0.00 | 68 | 994.0 |
| 20260901114510 | 82 | 197 | 0.0 | 2.0 | 0.00 | 0.00 | 0.00 | 68 | 993.9 |
| 20260901113008 | 82 | 197 | 0.0 | 2.0 | 0.00 | 0.00 | 0.00 | 67 | 993.8 |
| 20260901111505 | 83 | 197 | 0.0 | 1.0 | 0.00 | 0.00 | 0.00 | 67 | 993.5 |
| 20260901110004 | 83 | 197 | 0.0 | 1.0 | 0.00 | 0.00 | 0.00 | 66 | 993.5 |
| 20260901104506 | 83 | 197 | 0.0 | 1.0 | 0.00 | 0.00 | 0.00 | 66 | 993.4 |
| 20260901103002 | 83 | 197 | 0.0 | 0.0 | 0.00 | 0.00 | 0.00 | 66 | 993.4 |
| 20260901101604 | 84 | 197 | 0.0 | 2.0 | 0.00 | 0.00 | 0.00 | 65 | 993.4 |
| 20260901100104 | 84 | 245 | 0.0 | 1.0 | 0.00 | 0.00 | 0.00 | 64 | 993.5 |
| 20260901094557 | 84 | 218 | 0.0 | 4.0 | 0.00 | 0.00 | 0.00 | 63 | 993.4 |
| 20260901093101 | 85 | 213 | 1.0 | 4.0 | 0.00 | 0.00 | 0.00 | 63 | 993.5 |
| 20260901091555 | 85 | 214 | 0.0 | 3.0 | 0.00 | 0.00 | 0.00 | 61 | 993.6 |
| 20260901090054 | 85 | 215 | 0.0 | 3.0 | 0.00 | 0.00 | 0.00 | 60 | 993.6 |
| 20260901084554 | 85 | 174 | 1.0 | 5.0 | 0.00 | 0.00 | 0.00 | 58 | 993.5 |
| 20260901083051 | 85 | 86 | 2.0 | 5.0 | 0.00 | 0.00 | 0.00 | 57 | 993.4 |
| 20260901081552 | 85 | 146 | 0.0 | 5.0 | 0.00 | 0.00 | 0.00 | 57 | 993.4 |
| 20260901080049 | 85 | 92 | 0.0 | 2.0 | 0.00 | 0.00 | 0.00 | 56 | 993.3 |
| 20260901074548 | 85 | 101 | 0.0 | 2.0 | 0.00 | 0.00 | 0.00 | 56 | 993.3 |
| 20260901073054 | 85 | 101 | 0.0 | 3.0 | 0.00 | 0.00 | 0.00 | 55 | 993.3 |
| 20260901071545 | 85 | 94 | 0.0 | 4.0 | 0.00 | 0.00 | 0.00 | 55 | 993.2 |
| 20260901070053 | 85 | 148 | 1.0 | 4.0 | 0.00 | 0.00 | 0.00 | 55 | 993.1 |
| 20260901064543 | 84 | 133 | 1.0 | 3.0 | 0.00 | 0.00 | 0.00 | 55 | 993.0 |
| 20260901063042 | 84 | 104 | 0.0 | 2.0 | 0.00 | 0.00 | 0.00 | 55 | 993.0 |
| 20260901061541 | 84 | 104 | 0.0 | 0.0 | 0.00 | 0.00 | 0.00 | 56 | 992.9 |
| 20260901060037 | 84 | 104 | 0.0 | 0.0 | 0.00 | 0.00 | 0.00 | 55 | 992.7 |
| 20260901054536 | 84 | 104 | 0.0 | 1.0 | 0.00 | 0.00 | 0.00 | 54 | 992.6 |
| 20260901053036 | 85 | 104 | 0.0 | 1.0 | 0.00 | 0.00 | 0.00 | 54 | 992.4 |
| 20260901051531 | 85 | 104 | 0.0 | 0.0 | 0.00 | 0.00 | 0.00 | 53 | 992.2 |
| 20260901050028 | 86 | 104 | 0.0 | 0.0 | 0.00 | 0.00 | 0.00 | 52 | 992.0 |
| 20260901044541 | 86 | 104 | 0.0 | 0.0 | 0.00 | 0.00 | 0.00 | 51 | 991.9 |
| 20260901043028 | 87 | 104 | 0.0 | 0.0 | 0.00 | 0.00 | 0.00 | 50 | 991.9 |
| 20260901041531 | 88 | 104 | 0.0 | 0.0 | 0.00 | 0.00 | 0.00 | 48 | 992.0 |
| 20260901040032 | 88 | 104 | 0.0 | 0.0 | 0.00 | 0.00 | 0.00 | 47 | 992.1 |
| 20260901034533 | 89 | 104 | 0.0 | 1.0 | 0.00 | 0.00 | 0.00 | 45 | 992.0 |
| 20260901033047 | 90 | 104 | 0.0 | 2.0 | 0.00 | 0.00 | 0.00 | 44 | 991.9 |
| 20260901031531 | 91 | 104 | 0.0 | 0.0 | 0.00 | 0.00 | 0.00 | 42 | 992.0 |
| 20260901030033 | 91 | 104 | 0.0 | 2.0 | 0.00 | 0.00 | 0.00 | 41 | 991.8 |
| 20260901024527 | 91 | 111 | 1.0 | 4.0 | 0.00 | 0.00 | 0.00 | 39 | 991.7 |
| 20260901023025 | 92 | 123 | 0.0 | 3.0 | 0.00 | 0.00 | 0.00 | 39 | 991.5 |
| 20260901021524 | 92 | 120 | 0.0 | 2.0 | 0.00 | 0.00 | 0.00 | 38 | 991.3 |
| 20260901020029 | 93 | 120 | 0.0 | 1.0 | 0.00 | 0.00 | 0.00 | 37 | 991.1 |
| 20260901014522 | 94 | 120 | 0.0 | 3.0 | 0.00 | 0.00 | 0.00 | 35 | 991.0 |
| 20260901013022 | 94 | 117 | 0.0 | 3.0 | 0.00 | 0.00 | 0.00 | 35 | 990.9 |
| 20260901011521 | 95 | 113 | 0.0 | 3.0 | 0.00 | 0.00 | 0.00 | 34 | 990.7 |
| 20260901010021 | 96 | 108 | 1.0 | 4.0 | 0.00 | 0.00 | 0.00 | 34 | 990.8 |
| 20260901004522 | 96 | 131 | 1.0 | 5.0 | 0.00 | 0.00 | 0.00 | 34 | 990.7 |
| 20260901003034 | 97 | 92 | 1.0 | 5.0 | 0.00 | 0.00 | 0.00 | 33 | 990.7 |
| 20260901001520 | 97 | 122 | 2.0 | 6.0 | 0.00 | 0.00 | 0.00 | 32 | 990.7 |
| 20260901000030 | 98 | 117 | 3.0 | 8.0 | 0.00 | 0.00 | 0.00 | 32 | 990.7 |
| 20260831234517 | 98 | 129 | 3.0 | 9.0 | 0.00 | 0.00 | 0.00 | 32 | 990.7 |
| 20260831233016 | 99 | 105 | 1.0 | 7.0 | 0.00 | 0.00 | 0.00 | 32 | 990.7 |
| 20260831231516 | 99 | 103 | 3.0 | 8.0 | 0.00 | 0.00 | 0.00 | 32 | 990.7 |
| 20260831230016 | 99 | 174 | 2.0 | 8.0 | 0.00 | 0.00 | 0.00 | 32 | 990.8 |
| 20260831224510 | 99 | 42 | 3.0 | 8.0 | 0.00 | 0.00 | 0.00 | 31 | 990.8 |
| 20260831223009 | 99 | 110 | 2.0 | 8.0 | 0.00 | 0.00 | 0.00 | 33 | 991.0 |
| 20260831221506 | 100 | 84 | 1.0 | 6.0 | 0.00 | 0.00 | 0.00 | 33 | 991.0 |
| 20260831220005 | 99 | 127 | 3.0 | 8.0 | 0.00 | 0.00 | 0.00 | 33 | 991.2 |
| 20260831214502 | 99 | 133 | 3.0 | 10.0 | 0.00 | 0.00 | 0.00 | 32 | 991.4 |
| 20260831213004 | 101 | 119 | 4.0 | 11.0 | 0.00 | 0.00 | 0.00 | 30 | 991.3 |
| 20260831211603 | 100 | 113 | 3.0 | 13.0 | 0.00 | 0.00 | 0.00 | 32 | 991.5 |
| 20260831210055 | 99 | 91 | 3.0 | 10.0 | 0.00 | 0.00 | 0.00 | 32 | 991.6 |
| 20260831204554 | 100 | 131 | 2.0 | 9.0 | 0.00 | 0.00 | 0.00 | 33 | 991.9 |
| 20260831203100 | 100 | 98 | 4.0 | 10.0 | 0.00 | 0.00 | 0.00 | 32 | 992.1 |
| 20260831201553 | 100 | 165 | 3.0 | 8.0 | 0.00 | 0.00 | 0.00 | 32 | 992.2 |
| 20260831200050 | 99 | 114 | 3.0 | 8.0 | 0.00 | 0.00 | 0.00 | 34 | 992.5 |
| 20260831194554 | 98 | 359 | 2.0 | 7.0 | 0.00 | 0.00 | 0.00 | 34 | 992.7 |
| 20260831193043 | 98 | 93 | 1.0 | 7.0 | 0.00 | 0.00 | 0.00 | 36 | 992.9 |
| 20260831191541 | 99 | 135 | 1.0 | 9.0 | 0.00 | 0.00 | 0.00 | 34 | 993.0 |
| 20260831190052 | 98 | 127 | 1.0 | 12.0 | 0.00 | 0.00 | 0.00 | 36 | 993.1 |
| 20260831184535 | 97 | 201 | 5.0 | 10.0 | 0.00 | 0.00 | 0.00 | 36 | 993.3 |
| 20260831183032 | 98 | 226 | 4.0 | 13.0 | 0.00 | 0.00 | 0.00 | 37 | 993.5 |
| 20260831181530 | 97 | 89 | 4.0 | 9.0 | 0.00 | 0.00 | 0.00 | 39 | 993.8 |
| 20260831180026 | 96 | 325 | 1.0 | 8.0 | 0.00 | 0.00 | 0.00 | 41 | 994.0 |